GOES 14

Last updated on Sun Jun 21 2026 00:02:46 GMT+0000 (Coordinated Universal Time)

1 35491U 09033A 26171.34840896 -.00000308 00000+0 00000+0 0 9996 2 35491 1.6993 83.0080 0001921 13.0479 77.9267 1.00110067 6626
UTC large
Height (km)
Speed (km/s)
/
Latitude / Longitude
Inclination (degrees)
Orbital Period (minutes)
Azimuth
Elevation
Range (km)
Doppler Factor

Next 0 passes for location: London (51.5072 / 0.1276)

No passes found over London.
GOES 14